Kezdőlap
METAR-TAF:

METAR-TAF

Repülőterek :

S.t James Municipal Airport

St. James, Minnesota, Amerikai Egyesült Államok

földrajzi szélesség: 43-59-11N, földrajzi hosszúság: 094-33-29W, magasság: 325 m

Jelenlegi meteorológiai megfigyelések

A jelentés 30 perccel ezelõtt készült, 20:35 UTC
Délnyugati szél 11 kt széllökések: 18 kt
Hőmérséklet 28°C
Páratartalom 66%
Légköri nyomás 1007 hPa
Látótávolság: 16.1 km
Derült ég

METAR: KJYG 122035Z AUTO 22011G18KT 10SM CLR 28/21 A2974 RMK AO2

Idő: 16:05 (21:05 UTC)


TAF: hiányzik

Meteorológiai megfigyelések és előrejelzések több, mint 4000 repülőtéren (METAR és TAF jelentéseket).

A térképen piros és sárga pontok jelzik az elérhető meteorológiai állomásokat.

Mozgassa az egeret a pont fölött, hogy megjelenjen az állomás neve.

Azután kattintson az időjárási megfigyelések és előrejelzések megtekintéséhez.

A térkép megváltoztatása: kattintson a fekete keresztel jelölt zöld gombra ráközelítéshez, a vonallal jelölt zöld gombra távolításhoz, vagy a zöld nyilakra a szomszédos térképek eléréséhez.


METAR-TAF: